{"data":{"norad_id":45555,"intl_designator":"2020-025AA","name":"STARLINK-1327","alt_names":[],"object_type":"PAYLOAD","status":"ACTIVE","operator":null,"country":"US","launch_date":"2020-04-22","launch_site_code":"AFETR","launch_vehicle":null,"mission":null,"orbit_class":"UNKNOWN","rcs_meters":null,"size_class":null,"mass_kg":null,"dimensions":null,"purposes":["comms"],"wikipedia_slug":null,"has_3d_model":false,"image_url":null,"decayed_at":null,"tle_current":{"epoch":"2026-05-25T02:59:34.240704Z","epoch_age_seconds":58140,"freshness":"FRESH","line1":"1 45555U 20025AA  26145.12470186  .00045469  00000+0  44541-3 0  9998","line2":"2 45555  53.0420  54.0079 0005223  46.0102 314.1342 15.65656562337581","mean_motion":15.65656562,"eccentricity":0.0005223,"inclination_deg":53.042,"raan_deg":54.0079,"arg_perigee_deg":46.0102,"mean_anomaly_deg":314.1342,"bstar":0.00044541,"rev_number":33758,"period_min":91.974193763191,"perigee_km":367.8258989357,"apogee_km":374.87641426408,"semimajor_km":6749.4881565999,"source":"CELESTRAK","updated_at":"2026-05-25T13:38:16.422584Z"}}}